Probability
0 0 0 0 0 0 0 0 0 0 0 0 0 0 0 0 0 0 0 0 0 0 0 0 0 0 0 0 0 0 0 0 0 0 0 0 0 0
0 0 0 0 0 0 0 0 0 0 0 0 0 0 0 0 0 0 0 0 0 0 0 0 0 0 0 0 0 0 0 0 0 0 0 0 0 0
0 0 0 0 0 0 0 0 0 0 0 0 0 0 0 0 0 0 0 0 0 0 0 0 0 0 0 0 0 0 0 0 0 0 0 0 0 0
0 0 0 0 0 0 0 0 0 0 0 0 0 0 0 0 0 0 0 0 0 0 0 0 0 0 0 0 0 0 0 0 0 0 0 0 0 0
0 0 0 0 0 0 0 0 0 0 0 0 0 0 0 0 0 0 0 0 0 0 0 0 0 0 0 0 0 0 0 0 0 0 0 0 0 0
0 0 0 0 0 0 0 0 0 0 0 0 0 0 0 0 0 0 0 0 0 0 0 0 0 0 0 0 0 0 0 0 0 0 0 0 0 0
0 0 0 0 0 0 0 0 0 0 0 0 0 0 0 0 0 0 0 0 0 0 0 0 0 0 0 0 0 0 0 0 0 0 0 0 0 0
0 0 0 0 0 0 0 0 0 0 0 0 0 0 0 0 0 0 0 0 0 0 0 0 0 0 0 0 0 0 0 0 0 0 0 0 0 0
0 0 0 0 0 0 0 0 0 0 0 0 0 0 0 0 0 0 0 0 0 0 0 0 0 0 0 0 0 0 0 0 0 0 0 0 0 0
0 0 0 0 0 0 0 0 0 0 0 0 0 0 0 0 0 0 0 0 0 0 0 0 0 0 0 0 0 0 0 0 0 0 0 0 0 0
0 0 0 0 0 0 0 0 0 0 0 0 0 0 0 0 0 0 0 0 0 0 0 0 0 0 0 0 0 0 0 0 0 0 0 0 0 0
0 0 0 0 0 0 0 0 0 0 0 0 0 0 0 0 0 0 0 0 0 0 0 0 0 0 0 0 0 0 0 0 0 0 0 0 0 0
0 0 0 0 0 0 0 0 0 0 0 0 0 0 0 0 0 0 0 0 0 0 0 0 0 0 0 0 0 0 0 0 0 0 0 0 0 0
0 0 0 0 0 0 0 0 0 0 0 0 0 0 0 0 0 0 0 0 0 0 0 0 0 0 0 0 0 0 0 0 0 0 0 0 0 0
0 0 0 0 0 0 0 0 0 0 0 0 0 0 0 0 0 0 0 0 0 0 0 0 0 0 0 0 0 0 0 0 0 0 0 0 0 0
0 0 0 0 0 0 0 0 0 0 0 0 0 0 0 0 0 0 0 0 0 0 0 0 0 0 0 0 0 0 0 0 0 0 0 0 0 0
0 0 0 0 0 0 0 0 0 0 0 0 0 0 0 0 0 0 0 0 0 0 0 0 0 0 0 0 0 0 0 0 0 0 0 0 0 0
0 0 0 0 0 0 0 0 0 0 0 0 0 0 0 0 0 0 0 0 0 0 0 0 0 0 0 0 0 0 0 0 0 0 0 0 0 0
0 0 0 0 0 0 0 0 0 0 0 0 0 0 0 0 0 0 0 0 0 0 0 0 0 0 0 0 0 0 0 0 0 0 0 0 0 0
0 0 0 0 0 0 0 0 0 0 0 0 0 0 0 0 0 0 0 0 0 0 0 0 0 0 0 0 0 0 0 0 0 0 0 0 0 0
0 0 0 0 0 0 0 0 0 0 0 0 0 0 0 0 0 0 0 0 0 0 0 0 0 0 0 0 0 0 0 0 0 0 0 0 0 0
0 0 0 0 0 0 0 0 0 0 0 0 0 0 0 0 0 0 0 0 0 0 0 0 0 0 0 0 0 0 0 0 0 0 0 0 0 0
0 0 0 0 0 0 0 0 0 0 0 0 0 0 0 0 0 0 0 0 0 0 0 0 0 0 0 0 0 0 0 0 0 0 0 0 0 0
Height
5633 5635 5637 5639 5640 5642 5644 5646 5648 5651 5653 5654 5654 5655 5656 5658 5660 5663 5665 5667 5670 5672 5675 5677 5679 5682 5684 5686 5689 5691 5693 5695 5697 5699 5701 5702 5704 5706
5618 5620 5621 5623 5625 5626 5628 5630 5632 5634 5637 5640 5639 5639 5640 5642 5644 5646 5649 5651 5654 5656 5658 5661 5663 5666 5668 5670 5672 5675 5677 5679 5682 5684 5686 5688 5690 5692
5602 5604 5606 5607 5609 5610 5612 5614 5616 5617 5620 5623 5623 5623 5624 5626 5627 5630 5632 5635 5638 5640 5642 5644 5646 5649 5651 5653 5656 5658 5661 5663 5665 5668 5670 5673 5675 5677
5585 5587 5589 5591 5593 5594 5596 5597 5599 5600 5603 5606 5607 5608 5608 5609 5611 5614 5616 5618 5621 5623 5625 5627 5629 5632 5634 5636 5639 5641 5644 5646 5648 5651 5654 5658 5660 5661
5568 5570 5572 5574 5576 5578 5579 5581 5582 5583 5585 5587 5590 5591 5592 5593 5595 5597 5599 5602 5604 5606 5608 5609 5612 5614 5617 5619 5621 5624 5626 5629 5632 5635 5637 5639 5642 5645
5552 5553 5555 5557 5559 5561 5562 5564 5565 5566 5568 5570 5572 5574 5576 5577 5578 5581 5583 5585 5588 5590 5591 5593 5595 5597 5599 5602 5605 5606 5608 5611 5613 5617 5619 5622 5624 5627
5535 5536 5538 5540 5542 5543 5545 5547 5548 5550 5551 5553 5555 5557 5558 5560 5562 5564 5566 5569 5571 5572 5574 5576 5578 5581 5582 5584 5586 5589 5591 5593 5596 5599 5601 5604 5606 5609
5518 5519 5521 5523 5524 5526 5528 5530 5531 5533 5535 5536 5538 5539 5541 5542 5544 5546 5549 5552 5555 5557 5557 5559 5561 5563 5565 5567 5569 5571 5573 5575 5578 5581 5583 5586 5588 5591
5501 5503 5504 5506 5507 5509 5511 5513 5514 5516 5518 5519 5521 5523 5524 5526 5528 5531 5532 5534 5538 5539 5540 5543 5544 5546 5548 5550 5551 5553 5555 5558 5560 5562 5565 5567 5570 5572
5484 5486 5488 5490 5491 5493 5494 5496 5498 5500 5502 5503 5506 5507 5508 5509 5511 5513 5515 5518 5521 5522 5523 5526 5528 5529 5531 5532 5534 5535 5537 5539 5542 5544 5547 5549 5552 5554
5468 5470 5471 5473 5475 5476 5478 5480 5482 5484 5485 5487 5489 5490 5492 5493 5494 5497 5499 5502 5505 5506 5507 5509 5511 5512 5515 5516 5517 5518 5519 5521 5523 5526 5528 5531 5533 5535
5452 5454 5455 5457 5459 5459 5461 5464 5466 5468 5469 5471 5472 5474 5476 5477 5479 5481 5483 5485 5488 5490 5491 5492 5494 5495 5498 5500 5500 5500 5502 5503 5505 5508 5510 5513 5515 5516
5435 5438 5439 5441 5442 5444 5446 5448 5451 5452 5453 5455 5456 5458 5460 5461 5463 5465 5467 5469 5471 5474 5475 5475 5477 5477 5479 5482 5484 5484 5485 5487 5488 5490 5492 5494 5496 5498
5419 5421 5424 5425 5427 5428 5430 5432 5434 5435 5437 5438 5440 5442 5444 5446 5447 5449 5451 5452 5454 5456 5457 5458 5459 5460 5462 5464 5467 5468 5469 5470 5471 5473 5475 5476 5478 5480
5402 5405 5408 5410 5411 5413 5415 5417 5418 5420 5421 5423 5425 5427 5428 5429 5431 5432 5434 5435 5437 5439 5440 5441 5442 5443 5445 5447 5450 5451 5452 5453 5454 5456 5457 5459 5461 5462
5386 5389 5392 5394 5396 5398 5400 5401 5403 5404 5406 5408 5409 5411 5412 5413 5414 5416 5417 5419 5421 5423 5423 5424 5425 5426 5428 5430 5432 5433 5435 5436 5438 5439 5440 5442 5443 5445
5371 5373 5376 5379 5381 5383 5385 5386 5388 5389 5390 5392 5393 5395 5396 5397 5398 5400 5401 5402 5404 5406 5407 5408 5409 5410 5411 5413 5414 5416 5418 5420 5421 5422 5423 5425 5426 5427
5355 5358 5361 5364 5366 5368 5370 5371 5372 5374 5375 5376 5378 5379 5380 5382 5383 5384 5385 5386 5388 5390 5391 5392 5393 5394 5395 5397 5399 5400 5402 5403 5405 5406 5407 5408 5410 5411
5340 5343 5346 5348 5351 5352 5354 5356 5358 5359 5360 5361 5363 5364 5365 5366 5367 5368 5369 5370 5371 5373 5375 5376 5377 5378 5379 5382 5385 5384 5385 5387 5388 5390 5392 5393 5395 5396
5326 5328 5331 5333 5336 5338 5340 5341 5343 5344 5346 5347 5348 5349 5350 5351 5352 5353 5354 5354 5356 5357 5359 5361 5362 5363 5364 5367 5368 5370 5370 5371 5373 5374 5376 5377 5379 5380
5312 5315 5317 5319 5321 5323 5325 5327 5328 5330 5331 5332 5333 5334 5335 5336 5337 5338 5338 5339 5340 5342 5344 5346 5348 5348 5349 5350 5352 5355 5356 5357 5357 5359 5361 5362 5364 5365
5299 5301 5304 5306 5308 5309 5311 5312 5314 5315 5317 5318 5319 5320 5320 5321 5322 5323 5324 5325 5326 5327 5329 5331 5333 5334 5334 5336 5338 5340 5342 5342 5343 5344 5345 5347 5348 5351
5286 5288 5291 5292 5294 5295 5297 5298 5300 5301 5303 5304 5305 5306 5306 5307 5308 5309 5310 5311 5312 5313 5315 5317 5318 5319 5321 5322 5324 5325 5327 5328 5329 5330 5332 5333 5334 5336
Wind_Speed
56 56 56 57 57 57 57 56 56 55 54 54 55 56 56 55 55 54 54 54 54 55 55 55 54 54 54 54 54 53 53 52 52 51 51 51 50 50
58 57 57 58 59 58 58 58 57 57 56 55 56 56 57 57 56 55 56 56 55 55 56 56 57 57 56 56 56 55 55 54 54 53 53 53 52 52
59 58 58 58 58 58 59 59 59 58 58 56 56 57 57 57 57 57 57 58 57 57 57 58 57 58 58 58 58 57 57 56 56 56 55 55 55 55
60 59 59 58 58 59 59 59 59 59 60 59 58 58 58 58 59 58 58 58 58 58 58 58 59 59 58 58 59 59 59 58 58 57 56 56 56 56
60 60 60 60 59 59 59 59 59 59 60 60 59 58 58 59 59 59 59 59 59 59 59 59 59 59 59 59 59 59 59 60 60 59 59 59 59 59
61 60 60 60 60 59 59 59 59 59 60 60 60 59 59 59 59 59 58 58 58 59 59 59 59 59 59 59 59 59 60 60 61 61 61 61 61 60
60 60 60 60 60 60 60 60 60 59 59 60 60 60 60 60 59 59 58 58 58 58 59 59 59 60 59 59 60 60 60 61 61 61 62 62 62 62
60 60 60 60 60 61 60 60 60 59 59 59 59 60 59 59 59 59 58 58 57 57 58 58 59 59 60 60 60 60 61 61 61 62 62 63 62 62
60 60 59 59 59 59 59 59 59 58 58 59 58 58 58 59 58 58 58 58 57 57 58 58 58 58 58 59 60 61 61 61 61 62 62 62 62 62
58 58 58 58 58 58 58 58 59 58 57 58 57 57 57 57 58 57 57 57 56 56 57 57 57 58 57 58 59 60 60 61 61 62 62 62 62 62
57 56 57 57 58 58 58 58 58 58 58 57 57 57 56 56 57 57 56 57 57 57 58 58 58 58 58 58 58 58 59 60 61 61 62 62 62 62
57 56 56 56 56 56 57 57 56 57 57 57 56 57 57 56 56 56 57 57 57 57 58 58 58 59 58 58 58 57 57 57 59 60 61 61 61 62
56 55 54 55 56 56 56 55 55 55 56 56 56 56 57 57 56 56 57 57 57 57 58 58 58 58 57 56 56 57 57 58 58 59 59 59 60 61
55 54 54 55 55 55 55 53 53 54 54 55 55 55 55 55 56 56 56 56 57 58 58 58 58 57 56 56 56 56 57 58 59 59 58 58 59 60
54 53 53 53 53 53 52 52 52 53 54 53 53 54 55 55 55 56 56 56 56 56 57 58 57 57 57 56 56 56 57 57 57 58 58 58 59 59
53 53 53 52 52 52 52 52 52 52 52 52 52 53 54 54 54 55 56 56 56 55 56 56 56 56 56 56 56 56 56 55 56 57 57 58 58 58
51 51 52 52 51 51 50 50 50 51 51 51 52 52 52 53 53 54 55 55 54 54 53 54 54 55 55 54 54 55 54 54 55 55 55 56 56 57
49 49 50 50 50 50 49 49 49 50 50 51 51 51 51 52 52 52 53 53 53 52 52 52 52 53 53 53 53 53 53 53 53 53 53 53 53 54
48 47 47 48 48 48 48 48 48 49 49 49 50 50 50 50 50 50 50 51 51 51 51 51 51 51 51 51 50 52 52 52 52 52 51 51 51 50
45 46 46 46 47 47 48 48 48 48 48 48 48 49 49 49 48 49 49 50 50 50 50 50 50 49 49 49 49 49 50 50 50 51 51 50 50 49
43 44 44 45 46 46 47 47 46 46 46 47 47 47 47 47 47 48 48 48 48 48 48 48 48 48 48 49 48 47 48 49 49 50 50 49 49 49
41 42 42 43 44 44 44 44 44 44 45 45 45 46 46 46 46 46 45 45 45 45 45 46 47 47 47 47 47 46 46 47 47 47 48 48 47 47
39 39 40 41 41 41 42 42 43 44 45 45 45 45 44 44 44 44 43 43 43 43 44 44 45 46 45 45 45 44 44 45 44 44 44 45 45 45
Wind_Direction
260 261 260 261 261 262 262 263 263 263 262 263 264 264 263 262 262 262 261 261 261 261 261 261 261 261 262 263 263 263 262 262 262 262 262 262 262 262
261 261 261 262 262 262 263 263 263 263 263 263 264 264 263 263 263 262 262 262 262 262 262 262 262 262 262 263 263 263 263 262 262 262 262 262 262 263
261 262 262 263 263 263 263 264 264 264 263 262 263 264 263 263 262 262 262 262 262 263 263 263 263 262 262 262 262 262 262 261 261 262 261 262 262 263
261 262 262 262 263 262 263 264 264 264 264 263 263 264 263 263 263 263 262 263 263 264 264 264 263 263 262 263 262 262 261 260 260 261 261 261 262 263
262 262 261 261 262 262 263 264 264 264 264 264 264 264 263 263 263 263 262 263 263 263 264 264 263 263 263 263 262 262 261 261 260 260 260 260 261 262
262 262 262 261 261 262 263 264 264 264 264 264 264 264 263 263 263 263 262 262 262 262 263 263 263 263 263 262 262 261 261 261 261 260 260 260 261 261
261 262 262 261 261 262 262 263 264 265 264 264 264 264 263 263 263 263 262 262 262 263 263 263 263 263 262 262 261 261 261 261 261 261 261 260 261 261
261 261 262 262 262 262 262 263 263 264 264 264 264 264 263 263 263 263 262 261 262 263 263 263 263 263 262 262 261 261 261 261 261 261 262 261 261 262
261 261 261 262 262 263 263 263 263 263 264 264 264 264 263 263 263 262 261 261 262 262 262 263 263 263 263 263 262 262 262 261 262 262 262 262 262 262
261 261 261 261 262 262 263 263 263 263 263 263 263 263 263 262 262 262 261 261 262 262 263 263 263 263 263 263 264 263 263 262 262 262 262 263 262 263
261 261 261 261 261 262 262 262 262 262 262 263 263 262 262 263 262 262 261 262 262 262 263 264 264 264 264 264 264 264 264 264 263 262 262 263 263 263
261 260 260 261 260 261 261 262 262 262 262 262 262 262 262 263 263 263 262 262 262 262 263 264 265 265 265 265 265 264 264 264 264 264 263 263 263 263
260 260 259 260 260 260 261 262 262 262 262 262 261 262 262 262 262 263 263 263 263 263 264 264 265 265 265 265 264 264 264 264 265 265 265 264 264 264
259 259 259 260 260 261 262 262 261 261 262 262 262 262 262 262 262 263 263 264 264 264 264 265 265 265 265 265 265 265 265 265 265 265 265 265 265 264
258 258 258 259 260 261 262 262 261 262 262 262 262 262 263 263 263 263 264 264 264 265 265 265 265 265 266 266 265 265 265 264 264 265 265 265 266 265
257 258 258 259 260 261 261 262 263 263 263 263 262 262 262 263 263 264 263 263 264 265 265 265 265 266 266 266 266 265 264 264 264 265 265 265 265 265
257 257 258 258 259 261 261 262 262 263 263 263 263 262 263 264 264 264 264 264 265 265 265 265 266 267 267 267 266 265 264 264 264 264 265 265 266 267
257 257 258 258 259 259 260 261 261 263 264 264 264 264 264 265 265 265 265 265 265 265 265 265 266 267 267 266 265 265 264 264 264 264 265 266 267 268
256 257 257 258 258 259 259 261 262 263 264 264 265 265 265 265 265 265 265 266 266 264 264 265 266 267 267 266 265 264 264 263 263 264 265 266 267 268
257 257 257 257 258 259 260 261 262 262 263 264 265 266 266 266 266 266 266 266 265 264 264 264 266 266 266 265 265 264 264 264 263 264 265 266 268 268
256 256 257 258 258 259 260 260 261 262 263 264 266 266 267 267 267 266 267 267 265 263 263 264 265 266 266 265 265 264 263 263 264 265 266 267 267 268
257 257 258 259 260 260 260 260 261 262 263 264 265 266 266 267 267 267 267 266 264 262 262 263 264 265 265 265 265 264 263 263 264 265 266 267 267 267
258 259 259 261 261 260 260 261 262 262 263 263 264 265 266 266 266 266 266 265 264 262 262 262 264 265 266 265 264 263 263 262 263 264 265 267 268 269